DELTA 1 DEB, 21363

Orbit data source: Space-Track

DELTA 1 DEB, 21363 is space debris in SSO originally from a launch on Thu, 12 Jun 1975 UTC launched from the Air Force Western Test Range (AFWTR). Debris objects in space refer to the collection of defunct objects orbiting the Earth. Examples of debris include non-operational satellites, rocket bodies, and fragments generated from explosions, collisions, or faulty payload assembly.

Loading next visibility...
Identifier
21363, 1975-052CH
Orbit
SSO
Country
Flag of USUS
Related business
Manufacturer
Unknown
Mission
Spacecraft
Bus & Motor
Unknown
Mass
Unknown
Launch date (UTC)
1975-06-12 (51 years ago)
Launch vehicle
Unknown
Launch site
Air Force Western Test Range (AFWTR)
Object type
Payload
Rocket body
Debris
Shape & HBR
Unknown shape, 0.3 m
Radar Cross Section
Medium (>0.1 m² and <1 m²)

Expand to show TLE details & history
Last TLE update: 1 day ago

TLE from 1 day ago
0 DELTA 1 DEB
1 21363U 75052CH  26171.41521243  .00000011  00000-0  13822-3 0  9994
2 21363  99.7434  87.6878 0173727 266.8998 209.0779 13.10291317676878
Epoch: 2026-06-20T09:57Z
TLE epoch observation values (Epoch: 2026-06-20T09:57:54.353Z)
Latitude
63.3426°
Longitude
-130.52063°
Altitude
1,348.775 km
Speed
7.134 km/s
True Right ascension
19h 10m 20s
True Declination
63° 12' 54"
Sunlit
Object was in daylight at epoch
Visualization orbit readout
Latitude
Unknown
Longitude
Unknown
Altitude
Unknown
Speed
Unknown
Apparent Right ascension
Unknown
Apparent Declination
Unknown
Sunlit
N/A
Visualization observer readout
Local Sidereal Time
07:35:47
Azimuth
Unknown
Elevation
Unknown
Doppler factor
Unknown
Orbital elements
Apogee altitude
1,351.378 km
Perigee altitude
1,087.398 km
Semi-major axis
7,597.525 km
Eccentricity
0.01737
Inclination
99.7434°
RAAN
87.6878°
Arg. of periapsis
266.8998°
True anomaly
208.12847°
Mean anomaly
209.0779°
Eccentric anomaly
208.6014°
Mean motion
3.27744 °/min
Orbital period
109.84 mins
BSTAR
0.00013822
Loading maneuver chart data...
Computing Atmospheric mass density...
Loading historical data...
Loading historical data...
Loading historical data...
Loading historical data...
Loading historical data...
Loading historical data...
Loading historical data...

Documentation

Showing up to 5 results
|